Terminal Aerodrome Forecast
Issued by NWS Charleston, WV

Current Version | Previous Version | Text Only | Print | Product List | Glossary Off
Versions: 1 2 3 4 5 6 7 8 9 10 11 12 13 14 15 16 17 18

000
FTUS41 KRLX 200200 AAA
TAFHTS
TAF AMD
KHTS 200256Z 2003/2024 00000KT P6SM OVC025
     FM201000 VRB03KT P6SM BKN035=

USA.gov is the U.S. government's official web portal to all federal, state and local government web resources and services.